Temp_Advection
nan nan nan nan nan nan nan nan nan nan nan nan nan nan nan nan nan nan nan nan nan nan nan nan nan nan nan nan nan nan nan nan nan nan nan nan nan nan nan nan nan nan nan nan nan nan nan
nan -0 0 0 0 0 0 0 0 0 -0 0 0 0 0 0 -0 0 0 0 0 -0 -0 0 0 -0 -2 -2 0 0 0 0 -0 -1 -1 -2 -1 -1 -1 -0 -0 -0 0 -0 -0 -0 nan
nan -0 0 0 0 0 0 0 0 0 0 -0 -0 -0 -0 -0 -0 -0 -0 -0 -0 -0 0 0 0 -0 -3 -0 0 0 -0 -0 -0 -0 -1 -1 0 -1 -0 -0 -0 -0 -0 -0 -0 -0 nan
nan -0 0 0 0 0 0 0 0 0 -0 -0 -0 -0 -0 -0 -0 0 0 0 -0 -0 0 0 -0 -0 -1 0 0 -0 -0 -0 -0 -0 -0 -0 -0 -2 -1 -0 -0 -1 -0 -0 -0 -0 nan
nan 0 0 0 0 0 0 0 -0 0 -0 -0 -0 0 -0 -0 0 -0 0 0 0 -0 0 -0 -0 -0 -0 -0 -1 -0 -0 0 0 -0 -0 0 -0 -1 -2 -0 -0 -0 -0 -0 -0 -0 nan
nan 0 0 0 0 0 0 -0 -0 -0 -0 -0 -0 0 0 0 0 -0 0 -0 0 0 -0 -0 -1 -0 -1 -0 -0 -0 -0 -0 -0 -0 -0 -1 -2 -1 -0 0 -0 0 -0 -0 -0 -0 nan
nan 0 0 0 0 0 -0 -0 -0 -0 -0 -0 0 0 0 0 0 0 0 -0 -0 -0 -3 -2 -1 -0 -0 -0 -0 -0 -0 -0 -1 -2 -1 -1 -1 -0 0 -0 0 0 0 -0 -0 -0 nan
nan 0 0 0 0 -0 -0 -0 -0 -0 0 0 0 0 -0 -0 -0 -0 -0 0 -0 -0 -1 0 -0 -0 -0 -0 -0 -1 -1 -1 -2 -1 -0 -0 -0 0 0 -0 0 0 -0 -0 -1 0 nan
nan 0 0 -0 -0 0 0 -0 0 0 0 0 -0 -0 -0 -0 -0 -0 -0 -0 -0 -0 -0 -0 -0 -0 0 -0 -0 -1 -1 -1 -1 -0 -0 0 0 0 0 -0 -0 0 -0 0 -0 -1 nan
nan 0 0 -0 0 0 0 0 0 0 0 -0 -0 -0 -0 -0 -0 -0 -0 -0 -0 -0 -0 0 -0 0 0 0 -0 0 -1 -0 -0 -0 0 -0 -0 -0 0 0 0 0 -0 0 1 -0 nan
nan 0 -0 0 0 0 0 0 -0 -0 -0 -0 -0 -0 -0 -0 -0 -0 -0 -0 0 -0 -0 0 -0 -0 -0 -1 -0 -0 -0 -0 -0 -0 0 0 -0 -0 -0 0 -0 0 -0 0 -0 -0 nan
nan 0 -0 0 0 -0 -0 0 -0 -0 -0 -0 -0 -0 -0 -0 -0 -0 -0 0 -0 -0 -0 0 0 -1 -0 -1 -0 -1 -1 -2 -0 -0 -0 -0 0 -0 -0 -0 -0 -0 -0 -0 -0 -0 nan
nan 0 -0 0 -0 -0 -0 0 -0 0 -0 -0 -0 -0 -0 -0 -0 -0 -0 -0 -0 0 -0 -0 0 -0 -0 -0 -0 -1 -1 -1 0 -1 -1 -0 -0 -0 -0 -0 -0 -1 -0 -0 1 1 nan
nan 0 -0 -0 -0 -0 -0 -0 0 0 0 -0 -0 -0 -0 -0 0 0 -0 -0 0 -0 -0 -0 -0 0 0 0 -0 0 -0 -0 -0 -0 0 0 0 -0 -0 -0 0 0 0 1 -0 -0 nan
nan 0 -0 -0 -0 -0 -0 -0 -0 0 0 0 0 -0 -0 -0 0 0 -0 -0 0 0 0 -0 -0 0 0 -0 -0 -0 -0 0 0 0 0 -0 -0 -0 -0 -0 0 -0 -0 0 -1 0 nan
nan -0 -0 -0 -0 -0 -0 -0 -0 -0 0 0 0 0 -0 0 0 0 -1 0 0 0 -0 -0 0 -0 -0 -0 -0 -0 -0 0 -0 -0 0 0 -1 0 -0 -0 -0 -0 0 -0 0 -0 nan
nan -0 -0 -0 -0 -0 -0 -0 -0 -0 -0 -0 -0 -0 -0 0 -0 -1 -1 0 0 0 0 0 0 0 0 -0 -0 0 0 -0 -0 -0 -0 -0 1 -0 -0 1 1 -0 -0 -0 -0 0 nan
nan 0 -0 -0 -0 -0 -0 -0 -0 -0 -0 -0 -0 -0 -0 -0 -1 -1 0 0 -0 0 0 0 -0 -0 0 -0 -0 -0 0 0 -0 -1 -0 -0 0 -1 0 0 0 0 0 1 0 1 nan
nan -0 -0 -0 -0 -0 -0 -0 -0 -0 -0 -0 -0 -0 -0 -0 -1 -0 0 -0 -0 -0 0 -0 -0 -0 -0 -0 -0 0 0 0 0 -0 -1 -1 -0 -1 0 1 0 0 0 0 0 0 nan
nan -0 -0 -0 -0 -0 -0 -0 -0 -0 -0 -0 -0 -0 -0 -1 -1 -1 0 0 0 -0 0 0 0 -0 0 0 0 -0 0 0 0 -0 -0 -1 -0 -0 -0 1 -1 0 -1 -0 -0 -0 nan
nan -0 -0 -0 -0 -0 -0 -0 -0 -0 -0 -0 -0 -0 -0 -0 -0 -0 -0 0 0 0 0 0 0 0 0 0 -0 0 0 0 -0 0 0 0 0 0 -1 0 0 0 1 -1 -1 -1 nan
nan -0 0 0 0 0 -0 -0 -0 -0 -0 -0 -0 0 0 0 0 0 0 -0 0 0 -0 -0 -0 0 -0 -0 -0 -0 -0 -0 -0 -0 0 0 0 -0 -1 -0 0 -1 -0 -1 0 1 nan
nan -0 -0 0 0 0 0 0 0 0 -0 -0 -0 0 0 0 0 0 -0 -0 0 0 -0 0 0 -0 -0 -1 -0 -0 0 0 1 -0 -0 -0 -0 0 -0 -0 0 1 1 1 -0 -0 nan
nan -0 0 0 -0 0 0 -0 -0 0 0 -0 -0 -0 0 1 -0 -0 -0 0 -0 0 0 0 0 -0 -0 0 -0 0 0 0 0 0 -0 -0 -0 0 -0 -1 0 1 -0 0 -1 -1 nan
nan 0 0 0 0 0 0 0 0 0 0 0 0 -0 1 0 -1 -0 -0 0 0 0 0 0 0 0 0 0 -0 -0 0 0 -0 -0 0 -0 -0 -0 -0 -0 -3 1 -0 -0 0 -1 nan
nan -0 -0 0 -1 -1 -0 0 0 0 0 1 0 0 0 0 -0 -0 0 1 0 0 -0 0 0 0 0 0 0 -0 -0 0 0 -0 -0 0 -0 0 0 -1 -1 1 -0 -0 -0 -0 nan
nan -0 0 -0 -1 -1 -0 0 1 1 0 1 1 1 1 0 -1 0 0 -0 -0 -1 -0 0 0 0 1 0 -0 0 0 0 0 -0 -0 -0 -0 -0 -0 -0 -1 1 0 -0 1 1 nan
nan -0 -0 0 -0 -1 -0 0 0 0 1 0 1 1 1 0 -1 -1 -0 1 0 -0 -0 -1 -0 -0 -0 0 0 0 0 0 -0 -1 -0 -1 -1 -1 -0 -0 -0 -0 -0 -2 -0 1 nan
nan nan nan nan nan nan nan nan nan nan nan nan nan nan nan nan nan nan nan nan nan nan nan nan nan nan nan nan nan nan nan nan nan nan nan nan nan nan nan nan nan nan nan nan nan nan nan
Wind_Speed
14 14 14 14 14 14 13 15 15 14 14 14 14 10 7 6 6 7 10 10 5 5 11 24 23 9 9 14 13 16 15 15 13 14 25 15 24 7 5 5 5 5 4 2 4 8 7
13 14 14 15 15 14 14 14 16 16 15 15 16 13 9 6 5 3 5 7 10 6 2 3 13 28 18 14 15 13 15 12 12 17 22 31 14 12 10 6 6 4 4 4 3 8 6
13 13 14 15 15 15 14 14 15 16 16 15 14 14 10 7 3 2 5 4 6 8 3 5 6 6 28 19 21 14 12 13 13 14 17 19 23 14 4 4 6 1 2 4 7 9 5
13 13 14 14 15 14 14 15 15 15 17 16 13 14 9 8 6 6 6 5 5 12 9 5 4 7 9 21 25 7 13 12 11 11 13 11 12 15 10 4 6 6 5 7 1 11 5
12 12 12 13 14 14 14 14 15 15 16 16 16 11 12 7 3 4 12 5 1 2 7 12 9 5 5 12 29 22 12 14 8 5 12 11 5 10 13 4 4 8 2 3 9 4 4
12 12 12 12 13 14 14 15 15 14 14 15 16 14 9 9 4 3 1 6 16 5 1 4 12 4 10 12 20 29 11 12 10 5 3 6 7 5 5 7 2 5 5 5 8 5 1
11 12 12 12 12 13 13 14 15 15 14 14 16 16 10 12 9 5 2 3 2 3 23 15 12 6 9 10 7 26 15 6 8 11 6 9 9 4 3 1 3 4 3 6 6 3 10
10 10 11 11 11 12 13 14 14 16 15 15 15 17 15 7 12 9 4 1 3 9 13 12 10 12 12 12 8 29 21 7 10 5 8 6 3 3 3 4 3 4 3 6 13 2 6
9 9 10 10 10 12 12 13 14 16 16 15 14 17 17 8 12 9 8 8 11 6 4 6 11 9 11 9 9 23 24 8 9 6 7 5 1 5 1 3 9 3 3 2 6 10 1
8 8 8 8 9 11 11 12 13 15 16 16 15 17 17 11 6 8 6 6 5 2 4 10 8 8 12 5 6 21 19 8 7 3 2 4 3 2 2 0 2 3 2 8 8 4 3
6 7 7 7 8 9 10 11 12 13 15 17 16 15 17 13 8 6 4 2 2 1 4 5 6 7 9 9 11 15 14 6 4 2 2 1 5 4 1 2 3 5 6 3 2 3 4
5 6 6 6 7 8 9 11 12 13 15 17 16 13 17 15 13 8 3 2 2 6 3 5 5 9 5 10 8 15 8 10 4 2 4 1 1 1 3 3 3 9 3 2 3 3 3
4 4 4 4 6 7 9 10 12 14 15 16 16 12 16 16 11 9 3 2 5 6 2 6 5 6 1 6 6 11 6 9 5 7 8 5 1 1 4 4 1 9 5 4 6 5 5
2 2 3 3 4 6 8 10 11 13 14 16 16 11 14 17 14 10 2 4 8 1 2 1 2 3 3 6 2 7 3 4 4 3 3 4 6 4 6 4 4 3 4 4 5 4 6
2 0 2 3 4 6 7 9 11 13 14 16 16 9 13 18 14 10 2 6 4 3 2 5 4 2 3 1 1 4 4 3 3 1 3 4 5 2 5 3 3 1 4 2 5 1 3
2 1 2 4 5 7 8 9 11 13 14 15 15 7 11 18 13 7 5 3 3 1 0 1 1 1 3 5 5 5 2 3 2 1 1 2 5 2 3 3 8 4 3 3 3 4 7
2 1 2 3 5 7 9 10 11 13 15 15 12 4 11 17 9 4 4 4 3 3 2 1 2 1 2 2 1 1 3 2 3 3 4 4 2 2 3 5 7 2 2 4 4 3 4
3 2 3 5 6 7 9 10 11 13 15 14 7 4 10 12 4 5 2 1 1 3 1 1 2 3 4 3 2 3 4 4 8 9 4 3 5 5 7 1 1 2 5 5 4 5 1
1 1 3 4 6 7 8 9 10 11 13 16 10 4 7 8 3 2 1 1 2 3 3 3 3 2 2 3 2 3 3 2 13 11 7 8 2 5 4 3 4 3 3 3 4 3 8
2 1 1 3 5 8 10 10 9 10 11 13 6 3 4 6 6 5 3 2 2 3 3 3 2 3 2 3 4 3 3 5 10 6 5 8 2 6 9 6 4 4 5 5 5 4 4
6 6 5 5 6 7 9 11 12 10 9 9 5 2 1 3 4 2 1 2 3 3 4 6 2 6 6 2 3 5 4 2 6 7 7 3 5 5 12 17 7 20 11 11 14 10 9
11 10 9 9 9 9 9 10 11 11 9 7 3 1 0 1 1 2 2 6 7 3 7 4 5 3 7 5 8 7 6 5 6 5 6 3 4 3 6 14 6 11 10 16 20 18 16
16 16 15 15 14 14 13 13 14 13 11 4 3 3 3 2 2 3 4 4 5 4 6 3 8 4 5 13 17 13 11 8 6 9 7 5 1 5 7 5 13 8 9 15 6 8 8
22 22 22 21 21 20 20 18 17 16 14 10 9 5 2 4 3 5 1 4 6 9 4 2 9 5 2 2 8 8 5 3 6 7 7 5 3 2 6 9 3 5 2 4 11 9 22
28 27 27 29 28 25 23 22 23 22 19 18 13 9 5 3 7 8 14 9 6 8 5 4 6 5 2 5 3 5 2 1 1 4 2 3 3 2 3 2 15 6 2 5 5 12 18
21 23 25 27 29 31 32 29 25 26 27 25 21 16 11 3 7 10 3 6 4 4 1 3 4 7 6 2 2 3 4 4 2 2 9 4 2 2 1 4 6 6 3 5 5 8 7
19 20 20 22 23 21 24 29 31 28 26 31 28 23 19 7 15 13 8 5 6 4 2 3 4 5 7 2 2 4 4 3 4 6 6 2 1 6 6 7 10 16 10 8 3 10 10
20 21 21 21 21 20 20 21 25 26 24 22 32 29 24 12 23 23 19 18 10 6 3 8 3 2 2 0 3 4 3 4 1 6 7 8 8 6 4 5 11 16 12 9 9 10 11
21 19 20 21 22 22 22 20 19 22 23 19 28 29 29 23 13 13 20 24 29 28 18 11 4 6 11 2 2 1 4 1 4 10 0 3 8 5 14 10 8 24 30 33 32 30 33
Wind_Direction
87 81 74 69 70 67 61 53 48 46 41 40 37 48 66 78 100 89 59 61 67 77 57 53 47 29 39 53 25 16 27 34 32 23 39 41 41 53 72 76 74 55 359 46 345 23 14
88 81 72 67 66 63 59 54 47 44 40 39 38 52 62 64 106 93 59 52 39 22 67 53 49 48 54 62 14 14 23 25 29 36 42 50 47 66 88 65 61 337 316 347 63 18 351
90 82 72 66 65 61 57 52 47 42 39 38 39 41 47 53 70 10 330 336 25 18 71 55 32 17 39 43 22 15 13 20 28 35 44 50 53 63 69 85 45 24 21 23 32 351 3
88 81 73 67 63 59 54 50 45 40 36 33 35 36 36 42 66 44 28 80 94 66 62 50 5 41 76 33 23 22 24 19 24 40 42 40 37 49 49 52 31 35 51 354 57 7 2
87 81 74 68 62 56 51 46 42 39 33 30 28 30 32 36 76 59 40 78 94 264 33 49 36 65 50 12 17 20 16 23 14 30 27 32 54 59 27 34 31 15 287 339 313 71 318
85 80 73 67 62 56 50 44 39 36 32 30 26 23 25 25 2 295 264 97 45 39 320 25 31 67 27 358 13 14 6 15 23 3 27 42 52 68 32 24 9 312 327 280 252 310 186
86 79 72 66 60 54 49 42 36 31 30 25 24 22 21 24 17 9 297 259 300 44 65 67 48 54 1 357 9 13 17 16 19 45 29 23 58 29 312 309 137 229 217 256 258 283 339
91 82 72 63 58 52 45 39 32 27 24 19 19 19 18 30 27 21 36 146 121 132 80 59 49 36 18 6 2 14 20 46 39 36 340 29 63 293 250 144 316 193 204 267 293 252 332
100 90 78 66 56 48 41 35 29 25 22 21 19 18 17 22 31 35 58 100 126 112 75 33 29 18 15 9 29 10 14 26 49 44 18 98 200 316 16 36 355 217 204 304 243 321 247
104 93 80 65 54 47 39 32 27 24 21 20 17 16 16 17 24 26 65 101 127 118 75 339 1 16 358 349 42 10 14 21 39 83 45 89 325 357 27 337 219 299 100 325 292 31 292
111 91 78 64 53 45 38 31 27 22 19 17 13 13 15 19 20 27 46 104 111 86 49 330 349 353 358 46 330 2 7 29 76 33 71 316 358 360 320 250 181 254 348 287 85 81 30
117 96 76 58 44 35 30 25 21 17 16 12 10 12 12 13 18 23 48 118 94 44 300 348 340 351 6 24 15 345 11 34 74 101 44 97 331 36 280 290 224 309 15 90 67 98 9
125 102 80 56 38 26 23 19 15 10 9 8 5 5 8 12 12 10 22 123 37 91 349 328 333 6 51 344 5 22 33 8 47 16 16 331 248 1 3 337 47 19 25 342 353 3 241
135 97 68 43 28 18 15 12 9 8 3 1 359 356 6 7 5 4 39 61 67 58 4 331 310 297 40 1 38 8 52 41 57 45 66 33 325 28 359 104 196 13 108 135 275 294 288
156 97 27 5 3 1 1 2 1 1 360 357 354 354 3 3 1 0 46 50 190 202 249 337 306 22 341 35 52 28 55 175 229 135 95 25 281 108 45 116 115 294 51 187 93 97 13
136 41 359 348 347 345 347 352 353 353 355 353 350 350 358 358 358 6 67 161 197 219 282 244 68 91 306 320 5 48 8 215 187 227 173 196 313 60 141 85 54 112 138 33 20 330 301
126 76 24 353 347 343 342 343 347 348 349 349 347 340 353 354 358 24 101 200 180 187 195 35 199 261 223 299 313 294 262 227 177 129 79 131 98 288 58 190 183 79 16 44 115 124 204
96 65 22 9 356 348 348 347 345 346 348 348 354 347 351 357 29 46 80 21 147 184 178 238 105 133 174 163 265 257 241 201 169 157 133 199 151 269 236 356 164 131 193 156 130 247 153
97 53 28 13 2 350 343 344 348 348 354 355 344 336 358 7 89 26 216 201 214 175 221 188 201 212 185 209 343 217 229 204 174 171 175 181 219 308 305 2 358 217 206 128 108 82 201
238 275 316 336 352 5 6 357 350 352 354 357 351 9 22 51 78 121 144 198 232 219 232 206 160 136 144 229 215 279 249 205 202 205 175 162 203 202 230 247 125 243 189 206 145 156 179
253 264 279 300 321 341 351 0 2 351 351 357 6 57 39 309 16 65 127 169 177 233 217 205 238 221 175 201 221 232 229 206 200 209 148 162 241 206 270 274 251 264 232 183 204 204 202
257 262 271 281 290 300 313 325 337 349 347 342 337 305 224 203 260 150 193 226 203 201 156 226 214 191 178 201 205 224 184 200 212 158 158 170 267 14 269 268 230 259 242 214 221 240 254
258 264 271 274 278 285 295 304 311 320 334 334 329 302 291 220 146 108 227 202 221 174 211 227 204 129 204 245 262 268 238 254 222 161 180 160 292 5 275 323 299 278 228 188 186 209 197
260 259 261 263 267 273 276 280 286 292 297 299 295 282 270 271 206 212 278 230 220 221 233 208 203 167 232 254 296 277 257 256 218 191 164 143 135 160 282 321 337 256 174 178 191 233 210
263 263 256 256 256 254 259 266 271 273 272 270 271 258 232 258 228 255 242 235 256 252 250 244 230 227 238 309 358 325 281 300 141 49 170 136 124 285 304 258 285 286 181 156 176 281 232
269 276 275 272 266 260 259 258 258 264 264 261 259 250 228 256 245 246 196 218 205 210 309 178 216 207 206 137 82 231 253 249 230 129 21 118 84 138 147 250 270 255 177 163 132 282 198
263 267 270 275 276 275 270 262 258 254 258 257 253 248 232 226 259 250 225 217 207 180 143 184 177 173 189 120 198 206 252 162 239 186 170 138 188 221 228 257 278 255 187 150 68 294 189
264 266 267 269 272 273 270 269 259 248 249 259 254 250 237 226 247 248 255 248 224 214 171 168 117 202 93 139 172 236 199 236 17 165 179 168 168 205 199 224 275 157 127 181 242 281 283
267 267 267 268 271 272 271 271 269 262 249 253 253 255 246 231 251 242 250 256 256 256 252 198 226 176 203 115 236 61 253 177 174 277 145 268 201 198 196 214 241 200 255 268 285 289 294
Height
1570 1570 1570 1569 1568 1567 1566 1565 1564 1562 1560 1558 1557 1555 1554 1554 1553 1553 1552 1551 1550 1549 1548 1545 1542 1540 1539 1538 1545 1543 1540 1537 1536 1533 1527 1524 1523 1527 1535 1540 1541 1545 1549 1548 1549 1549 1547
1573 1572 1572 1571 1570 1570 1569 1567 1566 1564 1562 1560 1558 1557 1556 1555 1555 1555 1554 1553 1552 1549 1549 1548 1546 1545 1541 1544 1549 1544 1541 1540 1538 1535 1532 1528 1531 1532 1536 1542 1544 1547 1546 1548 1548 1547 1545
1575 1575 1574 1574 1573 1572 1571 1570 1568 1567 1565 1562 1560 1558 1557 1556 1556 1556 1555 1554 1553 1551 1549 1549 1547 1546 1545 1555 1549 1546 1544 1542 1540 1538 1535 1535 1535 1534 1539 1544 1548 1547 1547 1548 1549 1548 1545
1577 1577 1577 1576 1575 1574 1573 1572 1570 1569 1567 1565 1563 1561 1559 1558 1557 1557 1555 1554 1555 1553 1551 1550 1549 1548 1551 1554 1552 1549 1546 1544 1542 1541 1539 1538 1538 1537 1542 1548 1549 1554 1555 1558 1550 1549 1549
1580 1579 1579 1578 1578 1577 1576 1574 1573 1571 1570 1568 1565 1563 1561 1559 1559 1558 1557 1556 1556 1554 1553 1552 1551 1550 1555 1556 1552 1549 1547 1545 1543 1543 1542 1541 1540 1544 1548 1554 1558 1567 1579 1570 1559 1553 1553
1582 1581 1581 1581 1580 1579 1578 1576 1575 1573 1572 1570 1567 1565 1563 1561 1559 1558 1558 1557 1556 1554 1554 1553 1554 1556 1559 1560 1556 1552 1548 1546 1544 1542 1543 1542 1544 1554 1564 1563 1582 1576 1584 1575 1570 1554 1551
1584 1583 1583 1583 1582 1581 1580 1578 1577 1575 1573 1572 1569 1567 1564 1562 1560 1558 1557 1557 1560 1560 1556 1562 1566 1564 1563 1561 1558 1554 1548 1547 1545 1545 1552 1549 1559 1576 1576 1575 1574 1577 1585 1583 1566 1556 1554
1585 1585 1585 1584 1584 1582 1581 1580 1579 1577 1575 1573 1571 1568 1565 1563 1561 1558 1557 1557 1558 1562 1565 1566 1566 1566 1564 1561 1560 1556 1551 1551 1552 1559 1556 1558 1573 1575 1573 1573 1574 1575 1582 1579 1558 1554 1557
1586 1586 1586 1586 1585 1584 1583 1582 1581 1578 1576 1574 1572 1569 1566 1563 1562 1560 1558 1558 1559 1561 1563 1568 1567 1566 1566 1565 1563 1561 1558 1557 1560 1564 1568 1568 1574 1573 1571 1573 1573 1570 1574 1578 1577 1558 1555
1586 1586 1586 1586 1586 1585 1584 1583 1582 1580 1578 1575 1573 1570 1567 1564 1565 1562 1561 1561 1561 1562 1571 1575 1571 1571 1569 1565 1567 1566 1563 1565 1564 1570 1571 1573 1573 1571 1569 1571 1577 1576 1567 1568 1567 1574 1573
1587 1587 1587 1587 1587 1587 1586 1585 1583 1581 1579 1576 1574 1571 1569 1565 1565 1563 1564 1562 1562 1564 1592 1578 1575 1573 1570 1570 1572 1568 1566 1563 1569 1572 1572 1571 1573 1572 1568 1569 1573 1565 1567 1568 1569 1588 1591
1588 1588 1588 1588 1588 1588 1587 1586 1584 1582 1580 1577 1575 1572 1570 1567 1565 1564 1563 1563 1564 1576 1595 1579 1577 1576 1572 1572 1573 1569 1568 1567 1570 1570 1572 1575 1574 1574 1572 1570 1570 1567 1566 1566 1574 1583 1584
1588 1589 1589 1589 1589 1589 1588 1587 1585 1583 1580 1578 1575 1573 1571 1568 1567 1564 1563 1564 1574 1589 1580 1583 1584 1581 1581 1581 1577 1577 1580 1585 1590 1576 1588 1576 1574 1575 1574 1571 1567 1570 1574 1574 1560 1569 1551
1589 1589 1589 1589 1589 1589 1588 1587 1586 1584 1582 1579 1576 1573 1571 1569 1566 1564 1563 1565 1586 1583 1585 1589 1586 1583 1581 1586 1585 1584 1585 1593 1594 1596 1605 1599 1564 1577 1579 1584 1588 1587 1595 1593 1575 1572 1568
1589 1589 1589 1589 1589 1588 1588 1587 1585 1584 1582 1579 1576 1573 1572 1569 1566 1564 1565 1585 1588 1589 1591 1591 1586 1580 1580 1584 1588 1585 1595 1600 1599 1598 1596 1608 1576 1579 1580 1582 1587 1584 1593 1597 1620 1633 1625
1589 1589 1589 1589 1589 1588 1588 1587 1585 1583 1582 1579 1576 1573 1572 1569 1566 1565 1567 1587 1590 1591 1591 1591 1585 1589 1586 1588 1586 1592 1590 1597 1598 1598 1598 1606 1605 1579 1582 1583 1586 1589 1595 1594 1613 1587 1568
1589 1589 1589 1589 1589 1588 1588 1587 1585 1584 1582 1579 1576 1574 1573 1570 1568 1568 1585 1592 1590 1590 1590 1591 1590 1595 1600 1598 1594 1598 1599 1595 1595 1599 1600 1607 1611 1580 1584 1584 1585 1594 1602 1605 1605 1615 1605
1589 1589 1589 1590 1589 1589 1588 1587 1586 1584 1582 1579 1576 1575 1574 1572 1572 1580 1591 1590 1590 1589 1590 1591 1591 1594 1596 1594 1597 1593 1592 1592 1593 1594 1601 1602 1612 1604 1570 1581 1583 1585 1587 1590 1588 1602 1635
1589 1589 1589 1590 1589 1588 1588 1587 1586 1584 1582 1580 1577 1576 1575 1573 1584 1588 1589 1589 1589 1590 1590 1590 1590 1591 1593 1593 1595 1590 1588 1588 1587 1588 1593 1594 1602 1592 1558 1581 1582 1583 1590 1592 1593 1598 1608
1589 1589 1589 1589 1589 1589 1587 1586 1585 1584 1583 1581 1579 1579 1577 1576 1580 1582 1589 1586 1587 1588 1588 1589 1589 1590 1592 1592 1593 1593 1587 1587 1587 1588 1589 1591 1600 1579 1556 1545 1573 1581 1578 1586 1577 1594 1587
1588 1588 1588 1589 1589 1589 1588 1587 1586 1584 1583 1583 1581 1582 1582 1586 1582 1584 1586 1587 1585 1585 1587 1587 1588 1587 1589 1595 1589 1591 1586 1586 1586 1586 1589 1591 1595 1585 1569 1559 1563 1550 1556 1572 1566 1552 1546
1586 1586 1587 1588 1588 1588 1588 1587 1586 1585 1583 1583 1583 1583 1582 1582 1583 1583 1585 1585 1582 1580 1583 1585 1586 1579 1585 1589 1578 1582 1579 1582 1577 1584 1587 1590 1585 1585 1577 1551 1560 1549 1536 1541 1548 1541 1541
1582 1583 1584 1585 1586 1586 1586 1586 1585 1585 1585 1584 1583 1584 1584 1583 1582 1585 1581 1577 1579 1578 1577 1577 1579 1582 1584 1577 1575 1574 1574 1572 1573 1577 1584 1590 1593 1589 1562 1553 1547 1530 1517 1522 1528 1523 1506
1578 1579 1580 1581 1582 1582 1583 1583 1583 1584 1584 1584 1583 1583 1584 1585 1583 1581 1577 1577 1576 1576 1577 1575 1576 1578 1576 1575 1573 1571 1570 1570 1571 1575 1578 1587 1590 1590 1575 1552 1524 1478 1500 1500 1501 1493 1488
1572 1572 1573 1575 1576 1577 1578 1578 1579 1579 1580 1580 1580 1582 1581 1580 1576 1573 1573 1573 1573 1574 1575 1574 1575 1576 1576 1575 1575 1571 1568 1569 1572 1575 1577 1579 1583 1589 1581 1578 1507 1475 1497 1502 1500 1464 1458
1567 1567 1567 1568 1570 1570 1571 1573 1573 1574 1574 1574 1575 1576 1577 1576 1568 1567 1568 1569 1570 1571 1571 1571 1571 1571 1573 1573 1576 1576 1565 1554 1562 1578 1578 1578 1580 1586 1581 1562 1523 1478 1488 1490 1491 1475 1447
1562 1562 1562 1563 1564 1563 1563 1564 1565 1566 1566 1567 1567 1569 1570 1569 1565 1565 1564 1564 1563 1564 1566 1568 1568 1571 1573 1575 1577 1575 1564 1557 1557 1558 1583 1584 1587 1581 1573 1559 1523 1475 1479 1487 1486 1439 1438
1558 1558 1558 1558 1559 1557 1556 1557 1558 1558 1559 1560 1559 1560 1563 1560 1556 1557 1558 1557 1557 1560 1561 1565 1568 1567 1573 1579 1576 1567 1572 1555 1560 1549 1557 1555 1568 1571 1562 1554 1515 1462 1477 1471 1436 1429 1433
1553 1552 1552 1553 1552 1552 1551 1551 1551 1553 1552 1553 1553 1555 1554 1554 1551 1549 1549 1548 1550 1551 1556 1558 1558 1557 1557 1562 1565 1563 1557 1561 1550 1523 1536 1536 1515 1512 1509 1488 1444 1446 1437 1437 1435 1435 1432